Temp
90 93 93 93 92 90 85 82 76 77 78 75 78 75 72 69 68 67 69 69 77 80 79 81 79 80 82 82 76 72 69 68 66 62 59 58 62 65 70 73 72 74 75
85 90 92 92 90 88 84 82 75 74 74 75 79 81 80 75 72 68 68 71 75 76 82 83 82 81 83 81 75 70 69 68 70 68 64 54 55 59 65 67 69 73 75
82 86 89 90 90 87 85 83 76 74 73 73 75 77 83 82 74 73 70 71 77 81 81 82 82 81 83 79 73 71 71 68 70 72 73 61 62 63 64 64 68 72 72
82 84 87 89 89 87 86 84 78 74 73 72 75 75 78 79 81 77 80 77 81 78 82 81 82 80 83 78 75 75 75 74 70 72 77 76 72 68 63 67 68 72 70
81 83 85 89 92 87 85 81 77 73 72 73 77 77 78 81 82 81 77 77 75 80 82 81 80 80 82 78 75 75 74 77 74 73 73 74 75 74 68 63 63 69 71
81 83 86 88 90 88 82 77 75 72 72 71 75 77 77 79 79 79 77 77 78 78 80 81 79 80 80 80 78 76 76 75 77 76 75 75 72 72 68 65 64 65 69
61 68 78 86 88 86 81 74 73 72 70 71 72 77 78 78 77 77 79 77 77 75 77 79 78 79 78 80 79 77 76 76 74 75 74 78 77 78 74 68 65 63 66
55 57 61 68 79 87 79 77 72 69 72 72 72 75 78 80 79 78 79 78 79 78 78 78 78 79 79 79 78 78 77 76 76 75 75 76 74 77 74 72 65 60 60
48 50 55 60 66 76 83 77 75 70 70 72 74 73 76 77 79 77 77 79 79 80 78 78 78 78 79 79 78 77 76 77 76 75 74 75 74 76 75 74 71 65 58
42 44 47 53 60 67 79 77 76 73 68 71 74 74 71 77 77 77 76 77 78 79 78 77 77 77 78 78 78 77 78 76 76 76 75 75 76 75 75 72 68 67 65
38 40 43 48 56 65 71 75 75 70 70 70 72 72 69 72 75 76 76 77 77 79 79 78 77 77 77 78 77 77 77 76 75 76 75 74 75 74 74 69 66 65 65
37 39 41 44 49 57 62 77 76 72 71 74 71 70 67 68 73 76 77 77 78 79 80 79 78 78 79 78 77 76 77 76 74 75 74 74 73 71 72 68 64 64 61
36 37 40 41 44 50 56 64 73 74 75 74 70 68 67 68 69 74 76 77 78 78 79 79 79 79 78 78 77 77 77 76 75 75 74 73 72 68 69 67 64 63 61
34 35 38 40 44 47 50 53 59 75 73 75 69 66 67 68 68 69 74 76 76 77 78 79 80 78 79 79 78 77 76 75 75 74 74 73 70 68 68 65 63 62 59
33 34 36 38 42 45 46 49 51 57 72 72 72 67 69 70 67 67 68 71 75 76 77 77 78 78 78 79 77 77 74 73 73 73 73 72 67 58 63 65 63 59 57
33 34 35 38 39 43 44 46 47 49 54 70 67 68 70 69 67 66 67 69 71 71 75 74 75 75 75 59 53 66 74 72 70 67 68 66 55 54 48 48 49 56 57
33 34 35 37 39 39 44 43 45 48 48 48 50 60 68 67 66 66 65 68 68 69 68 68 73 74 74 46 46 47 72 70 67 66 65 63 62 55 57 45 45 44 42
34 36 37 36 38 40 41 46 46 45 45 47 47 48 52 64 65 64 64 65 66 65 67 65 65 67 65 45 45 44 66 66 66 66 65 61 59 57 53 49 48 50 48
38 39 41 41 40 41 43 44 45 45 44 43 45 47 47 49 56 61 62 63 63 63 64 64 63 62 60 44 44 46 57 56 57 57 57 58 55 46 45 51 48 50 45
43 42 41 43 43 42 42 43 43 45 43 43 44 45 46 46 47 49 51 54 59 58 58 58 60 55 54 42 42 48 54 50 49 48 48 42 50 40 41 50 48 45 45
45 45 45 43 45 46 46 41 43 42 46 47 46 45 45 45 46 47 48 50 52 52 52 51 52 52 49 44 41 43 53 50 47 45 43 42 38 40 41 43 46 46 44
45 47 45 45 47 50 49 44 41 46 46 49 46 45 45 44 45 45 46 46 48 48 48 48 46 46 46 40 40 42 46 45 48 46 44 39 38 39 40 42 39 39 39
45 46 46 47 48 49 49 47 45 47 47 47 47 45 46 45 44 42 43 43 45 45 45 46 45 44 44 45 39 39 39 40 45 45 40 37 37 37 37 37 37 36 44
45 45 45 45 45 48 48 50 52 52 52 44 47 46 45 44 44 43 43 41 42 43 42 43 43 43 45 44 44 43 41 36 38 36 38 36 36 36 35 36 38 43 45
45 44 45 45 45 48 50 50 51 52 50 51 44 48 47 46 44 41 39 41 39 38 41 41 40 41 41 41 40 42 43 42 39 38 38 37 37 36 37 38 39 40 41
45 45 45 46 46 47 48 49 50 50 48 47 50 48 51 51 45 47 42 35 35 35 35 35 38 39 36 36 36 36 36 36 35 38 37 36 37 36 37 37 38 39 38
MSLP
995.99 995.64 995.91 996.87 997.80 999.16 1000.97 1002.44 1003.93 1004.85 1005.45 1006.22 1006.53 1007.55 1008.49 1009.60 1010.49 1010.54 1011.63 1012.28 1012.26 1012.17 1012.57 1013.06 1013.61 1014.04 1014.41 1015.12 1016.46 1017.91 1018.79 1019.71 1020.64 1021.60 1022.92 1023.47 1023.46 1023.30 1022.98 1022.88 1022.97 1022.95 1023.26
996.16 995.54 995.42 996.14 997.14 998.46 1000.08 1001.54 1003.34 1004.64 1005.14 1005.58 1005.89 1006.52 1007.15 1008.86 1009.86 1010.97 1011.39 1012.29 1011.63 1011.77 1012.03 1012.37 1013.27 1014.00 1014.17 1015.02 1016.46 1017.67 1018.45 1019.40 1020.11 1020.10 1021.47 1022.75 1023.63 1023.52 1023.32 1023.40 1023.24 1022.66 1022.84
996.12 995.64 995.30 995.49 996.49 997.69 999.29 1000.75 1002.55 1004.10 1004.99 1005.51 1006.17 1006.91 1006.57 1007.27 1009.01 1010.10 1010.88 1011.14 1011.50 1011.26 1011.76 1012.20 1012.89 1013.61 1013.93 1014.93 1016.35 1017.38 1017.91 1018.63 1019.42 1019.33 1018.95 1020.57 1020.73 1021.95 1022.90 1023.11 1022.91 1022.38 1022.70
996.28 995.81 995.27 995.16 995.74 997.05 998.74 1000.26 1001.87 1003.47 1004.59 1005.27 1005.32 1005.75 1005.60 1005.95 1006.81 1008.44 1009.18 1009.95 1010.09 1010.78 1011.51 1012.14 1012.56 1013.30 1013.67 1014.54 1015.96 1016.86 1017.13 1017.53 1018.21 1018.76 1018.30 1018.25 1018.64 1019.48 1021.04 1021.93 1022.14 1022.14 1022.52
995.97 995.54 995.22 995.00 994.90 996.28 998.18 999.82 1001.35 1002.87 1003.93 1004.73 1004.65 1004.84 1004.96 1005.43 1006.29 1007.14 1008.49 1009.37 1009.82 1010.52 1011.18 1011.75 1012.37 1012.87 1013.43 1014.15 1015.36 1016.05 1016.43 1016.79 1017.24 1017.63 1017.87 1018.14 1018.47 1018.88 1019.40 1020.31 1021.21 1021.71 1021.84
995.89 995.77 995.28 994.96 994.98 995.34 997.51 999.71 1001.06 1002.15 1003.16 1004.24 1004.25 1004.12 1004.11 1004.81 1005.60 1006.32 1007.31 1008.41 1009.35 1009.37 1010.83 1011.25 1012.06 1012.51 1013.10 1013.53 1014.55 1015.45 1015.90 1016.28 1016.53 1016.87 1017.05 1017.29 1017.73 1018.07 1018.77 1019.45 1020.34 1020.63 1020.88
1000.85 998.97 996.68 995.35 994.53 994.84 996.76 998.64 1000.38 1001.29 1002.46 1003.33 1003.77 1003.50 1003.67 1004.32 1004.95 1005.63 1006.31 1007.33 1008.16 1009.21 1009.57 1010.53 1011.42 1012.10 1012.75 1013.19 1013.91 1014.76 1015.32 1015.69 1016.16 1016.31 1016.67 1016.68 1017.00 1017.11 1017.99 1018.94 1019.73 1020.17 1020.30
1004.52 1003.19 1001.21 998.88 996.45 994.99 996.53 997.76 999.46 1000.81 1001.24 1002.08 1002.67 1002.93 1003.34 1003.74 1004.35 1005.00 1005.71 1006.53 1007.10 1007.99 1008.67 1009.78 1010.74 1011.62 1012.36 1012.89 1013.48 1014.03 1014.66 1015.18 1015.55 1015.92 1016.27 1016.43 1016.76 1017.07 1017.83 1018.17 1018.97 1019.94 1020.11
1007.59 1005.94 1003.82 1001.91 999.47 996.80 994.94 996.49 998.11 999.74 1000.58 1001.09 1001.84 1002.47 1002.91 1003.06 1003.63 1004.35 1005.17 1005.91 1006.68 1007.47 1008.28 1009.05 1009.85 1010.84 1011.64 1012.37 1012.90 1013.44 1013.96 1014.40 1014.95 1015.31 1015.72 1016.04 1016.36 1016.56 1017.26 1017.76 1018.33 1018.64 1019.66
1009.69 1008.18 1006.17 1004.24 1001.60 998.76 995.75 995.11 997.00 998.44 999.93 1000.58 1000.96 1001.68 1002.64 1002.86 1003.38 1003.80 1004.39 1005.17 1006.03 1006.76 1007.64 1008.51 1009.19 1009.99 1010.82 1011.58 1012.24 1012.83 1013.26 1013.76 1014.21 1014.65 1015.00 1015.43 1015.77 1016.29 1016.79 1017.55 1018.28 1018.30 1018.78
1012.47 1010.81 1008.83 1006.26 1003.41 999.79 996.63 995.30 996.21 997.98 998.95 999.73 1000.29 1001.01 1002.37 1002.91 1003.46 1003.42 1004.04 1004.55 1005.43 1006.13 1006.80 1007.75 1008.61 1009.17 1009.91 1010.71 1011.48 1011.99 1012.54 1013.01 1013.47 1013.92 1014.24 1014.67 1015.19 1015.62 1016.34 1017.39 1018.06 1018.23 1018.45
1013.52 1011.94 1010.02 1007.46 1004.39 1001.37 998.33 995.25 995.45 996.78 997.56 998.71 999.47 1000.11 1001.38 1002.59 1002.84 1003.16 1003.42 1004.24 1004.73 1005.41 1005.98 1006.93 1007.75 1008.45 1009.08 1009.81 1010.50 1011.10 1011.59 1011.97 1012.58 1013.04 1013.60 1013.89 1014.51 1015.22 1015.81 1016.93 1017.66 1017.80 1018.21
1014.06 1012.56 1010.76 1007.89 1005.42 1002.93 1000.54 997.83 995.91 995.75 996.52 997.63 998.63 999.71 1000.69 1001.64 1002.08 1002.33 1002.61 1003.42 1004.09 1004.70 1005.37 1005.91 1006.64 1007.39 1008.11 1008.83 1009.52 1010.15 1010.75 1011.22 1011.79 1012.29 1012.89 1013.49 1014.04 1014.81 1015.37 1016.23 1017.12 1017.52 1017.92
1015.00 1013.49 1010.89 1008.18 1006.12 1004.69 1002.67 1000.47 998.04 995.40 995.85 997.19 998.13 999.16 1000.07 1000.85 1001.68 1001.98 1002.23 1002.79 1003.37 1004.04 1004.57 1005.09 1005.70 1006.46 1007.23 1007.91 1008.71 1009.38 1010.02 1010.57 1011.01 1011.57 1012.18 1012.83 1013.45 1014.09 1014.79 1015.66 1016.59 1017.24 1017.79
1015.88 1014.09 1010.40 1009.08 1007.49 1005.60 1003.61 1001.89 1000.37 998.77 996.81 996.85 997.33 998.70 999.48 1000.46 1001.50 1001.80 1002.12 1002.47 1002.90 1003.55 1004.03 1004.63 1005.23 1005.96 1006.66 1007.29 1007.98 1008.59 1009.38 1009.96 1010.46 1010.89 1011.58 1012.33 1012.79 1013.32 1013.99 1014.87 1015.75 1016.55 1017.15
1016.38 1014.29 1011.28 1010.25 1008.58 1006.90 1005.46 1003.91 1002.14 1000.77 999.35 997.23 997.39 998.57 998.70 999.83 1000.81 1001.24 1001.65 1002.21 1002.18 1003.00 1003.83 1004.28 1004.95 1005.51 1006.09 1006.66 1007.44 1007.96 1008.67 1009.39 1010.11 1010.87 1011.49 1012.17 1012.80 1013.33 1013.88 1014.50 1015.24 1015.68 1015.91
1015.70 1014.47 1013.38 1011.14 1010.43 1009.07 1007.69 1005.68 1004.56 1003.34 1001.30 1000.51 999.80 998.40 998.33 999.80 1000.41 1000.87 1001.34 1001.50 1001.89 1002.58 1003.09 1003.69 1004.60 1005.30 1005.94 1006.91 1007.47 1008.00 1008.53 1009.20 1010.12 1010.84 1011.29 1012.04 1012.65 1013.32 1014.03 1014.54 1015.19 1015.79 1016.25
1016.41 1014.78 1014.63 1013.39 1011.21 1010.39 1009.48 1007.52 1006.02 1004.42 1003.63 1002.45 1001.80 1001.31 1000.51 999.77 1000.18 1000.54 1000.92 1001.45 1001.82 1002.55 1002.94 1003.45 1004.03 1005.37 1006.50 1007.44 1007.72 1008.34 1008.89 1009.32 1009.92 1010.41 1010.98 1011.80 1012.63 1013.41 1013.89 1014.69 1015.37 1015.65 1016.45
1018.35 1016.83 1014.76 1013.39 1013.64 1011.65 1010.32 1009.16 1007.92 1005.95 1005.59 1004.73 1004.01 1003.46 1002.54 1001.09 1000.52 1000.45 1000.82 1001.37 1001.93 1002.54 1003.02 1003.89 1004.30 1004.68 1006.40 1007.07 1007.81 1008.72 1009.01 1009.37 1010.05 1010.53 1010.75 1011.66 1012.34 1013.00 1013.64 1014.10 1015.03 1015.28 1016.32
1018.04 1017.64 1016.05 1014.74 1013.65 1013.19 1012.16 1010.20 1009.19 1008.17 1006.75 1006.33 1005.89 1004.80 1003.94 1003.09 1002.30 1001.74 1001.41 1001.43 1001.88 1002.44 1003.00 1003.59 1004.21 1005.11 1005.86 1007.12 1007.62 1008.06 1008.41 1008.69 1010.10 1010.75 1011.25 1011.66 1012.12 1012.73 1013.09 1013.49 1014.16 1014.93 1016.19
1018.31 1017.02 1016.67 1016.36 1016.28 1014.44 1012.72 1011.33 1010.54 1009.20 1008.88 1008.80 1007.04 1006.44 1005.62 1004.95 1004.20 1003.27 1002.77 1002.48 1002.57 1002.92 1003.49 1004.07 1004.83 1005.58 1006.49 1007.44 1007.74 1008.09 1008.80 1009.10 1009.79 1010.83 1012.07 1012.50 1012.47 1012.93 1013.45 1013.83 1014.43 1015.06 1015.55
1017.88 1017.31 1016.73 1015.65 1014.25 1013.38 1013.34 1012.83 1011.77 1011.36 1009.59 1009.53 1009.03 1007.63 1007.41 1007.03 1005.82 1004.94 1004.44 1004.25 1004.08 1004.16 1004.44 1004.94 1005.77 1006.38 1006.86 1007.17 1007.42 1008.01 1008.53 1008.59 1009.69 1011.19 1012.27 1012.58 1012.57 1013.00 1013.27 1013.88 1014.63 1015.48 1016.01
1018.61 1017.92 1016.60 1015.99 1015.93 1015.79 1014.95 1014.06 1013.75 1011.33 1011.70 1010.12 1009.52 1009.28 1008.63 1008.74 1007.96 1006.68 1006.47 1005.93 1005.91 1006.09 1006.07 1006.22 1006.69 1007.44 1007.44 1008.12 1008.29 1008.71 1008.83 1009.37 1010.11 1010.71 1011.71 1012.71 1013.07 1013.48 1013.84 1014.33 1014.98 1015.62 1016.00
1018.06 1017.47 1017.03 1016.41 1015.76 1015.17 1014.73 1013.22 1012.35 1012.14 1012.06 1012.14 1011.00 1010.53 1009.50 1010.03 1009.29 1008.59 1008.24 1008.38 1008.11 1007.65 1007.85 1007.72 1007.74 1008.12 1008.18 1008.71 1008.94 1009.28 1009.67 1009.68 1010.33 1011.28 1012.32 1012.94 1013.11 1013.78 1014.57 1014.99 1015.53 1015.83 1015.96
1018.40 1018.23 1017.64 1016.77 1016.21 1015.50 1014.73 1014.36 1014.01 1013.29 1011.92 1011.04 1010.65 1010.94 1010.45 1010.72 1010.37 1010.09 1010.87 1009.77 1010.07 1009.89 1009.43 1008.81 1008.97 1009.15 1009.25 1009.66 1009.65 1009.59 1009.94 1010.41 1010.98 1011.69 1012.44 1012.96 1013.55 1014.35 1014.92 1015.51 1015.79 1016.01 1016.10
1018.61 1017.91 1017.25 1016.68 1016.31 1016.01 1015.39 1014.88 1013.96 1013.35 1013.10 1012.05 1011.50 1011.43 1009.92 1012.25 1011.19 1010.52 1010.89 1011.43 1010.92 1010.49 1010.25 1010.09 1009.72 1010.02 1009.85 1010.13 1010.15 1010.70 1010.75 1011.20 1011.39 1011.71 1012.50 1013.16 1013.80 1014.24 1014.88 1015.85 1016.28 1016.25 1016.42
Wind_Speed
17 17 15 19 21 21 23 23 21 19 15 11 13 13 13 10 8 7 10 8 13 17 12 10 9 9 9 11 13 11 12 10 10 9 6 5 2 4 4 5 4 6 6
22 19 17 19 21 22 24 24 21 19 16 12 11 11 12 14 11 9 11 14 12 12 13 12 14 15 11 10 14 11 9 9 11 7 6 3 1 3 5 4 5 7 6
23 23 20 17 20 23 23 24 22 21 18 16 12 13 11 13 15 13 14 18 17 17 15 12 12 12 10 10 13 12 15 10 10 11 6 5 5 7 6 9 8 7 6
25 24 23 20 21 21 20 23 21 22 18 19 19 21 14 14 13 15 14 15 18 16 16 13 13 13 9 14 13 13 12 10 12 8 10 3 6 5 6 9 10 7 9
24 25 24 24 20 20 20 17 21 21 21 20 20 16 16 12 12 13 18 15 13 16 17 15 14 14 10 14 14 14 13 10 10 9 8 7 5 4 3 7 7 8 9
17 21 23 23 22 20 18 14 17 20 21 20 22 21 19 16 14 14 15 15 14 14 18 17 14 13 12 13 15 14 15 11 11 9 8 8 8 7 5 4 9 7 9
32 33 27 19 19 21 23 18 20 20 22 23 22 21 20 19 19 18 14 18 15 14 17 18 16 13 13 11 12 14 13 13 10 10 8 9 8 5 6 5 6 4 4
28 30 30 30 26 16 25 24 21 20 22 24 24 19 20 14 13 17 14 13 14 16 18 17 17 17 15 13 13 10 10 12 10 12 11 8 6 7 8 7 7 3 2
30 32 32 28 29 28 23 26 26 23 22 22 21 21 20 20 17 19 17 14 15 13 18 19 18 17 17 16 14 11 13 11 11 12 11 9 6 6 7 7 7 6 6
29 28 28 30 28 29 21 25 23 24 20 21 20 18 17 18 18 16 19 18 16 17 18 19 18 18 17 16 15 13 13 13 10 9 12 11 8 8 7 6 5 5 5
23 23 23 24 26 26 23 20 21 21 20 21 20 20 17 17 16 15 18 16 16 18 18 19 19 18 18 17 16 15 14 15 13 12 13 14 13 8 8 7 6 6 6
23 20 21 21 22 23 22 16 20 21 21 21 20 19 19 18 17 17 17 17 17 18 17 19 19 19 18 17 17 17 15 15 15 14 13 13 9 10 8 8 10 8 5
23 21 20 19 19 20 21 20 14 20 20 19 16 15 16 18 20 19 18 18 16 17 18 18 19 18 18 19 18 18 17 14 14 14 14 13 11 11 10 10 9 8 6
23 20 19 21 20 20 18 20 19 16 16 18 16 15 17 17 17 14 17 16 17 17 17 17 17 17 17 17 17 17 15 15 13 14 13 13 14 14 13 11 11 9 9
25 23 24 24 21 23 22 20 18 17 9 16 17 15 16 15 15 15 14 14 16 15 16 16 15 15 16 13 17 16 15 15 15 13 13 13 13 14 14 10 12 13 10
24 27 26 25 27 26 23 22 21 19 16 11 10 17 15 14 16 16 17 15 15 15 16 15 15 15 11 12 13 14 13 13 11 10 10 8 7 7 10 12 11 14 15
25 24 25 26 22 26 23 22 21 18 18 16 15 7 12 16 16 16 16 17 16 15 14 12 12 14 12 10 10 12 10 11 11 11 10 9 6 10 10 7 9 8 9
26 24 20 21 25 23 23 19 22 21 21 19 18 16 12 10 14 14 15 15 14 13 12 12 13 10 6 11 13 12 9 7 8 10 10 10 10 12 12 10 8 8 4
21 19 20 23 20 21 24 22 17 22 21 23 19 16 14 11 3 11 13 12 12 12 13 11 12 14 10 13 14 12 10 5 4 4 6 10 11 12 15 14 12 12 7
20 21 20 21 23 21 20 24 23 19 21 22 20 19 16 15 12 7 4 2 5 6 6 7 9 9 8 13 15 11 4 7 6 3 3 1 8 15 16 13 13 11 7
21 18 19 17 15 14 14 18 22 24 17 15 19 20 21 16 15 11 10 7 5 8 7 9 7 8 8 6 8 8 7 7 5 5 4 3 15 15 13 11 6 5 11
21 21 15 18 22 23 18 18 18 16 22 18 14 19 18 16 15 16 13 13 9 8 7 8 6 5 5 6 9 13 8 10 7 7 5 5 14 15 14 10 11 13 7
16 16 18 17 17 18 21 14 10 16 13 17 19 13 15 14 15 17 16 12 10 8 6 5 5 3 4 4 9 8 12 10 6 6 9 13 12 11 9 11 12 8 6
17 16 16 16 16 18 16 20 21 19 14 12 14 13 12 10 12 10 12 13 10 8 7 6 6 4 5 4 3 5 5 9 8 12 9 7 9 9 7 6 3 3 3
15 17 15 14 14 16 15 15 17 17 17 16 12 13 11 14 6 9 6 9 9 9 7 6 5 4 4 3 5 6 4 5 7 10 5 6 6 6 5 4 4 3 4
16 14 17 15 14 14 13 13 15 18 15 14 12 6 12 4 6 6 6 10 10 15 18 17 10 5 10 10 12 10 13 12 7 4 5 5 5 6 7 5 3 2 4
Wind_Direction
265 255 220 211 200 195 185 185 179 191 187 187 178 172 170 167 154 154 169 177 195 178 190 176 153 190 179 169 134 143 152 142 123 114 104 69 93 208 164 191 185 181 180
260 255 235 206 204 198 187 188 180 189 193 177 191 191 178 173 166 164 175 189 187 186 192 181 168 202 174 171 144 147 148 145 164 156 139 144 180 242 230 205 223 196 191
261 257 244 215 209 199 192 193 177 186 187 183 175 193 198 179 166 178 178 183 197 184 192 188 178 192 174 162 153 170 165 164 187 173 162 162 208 153 187 212 227 186 214
253 255 258 234 205 203 200 195 179 184 185 186 182 196 200 188 181 177 179 181 184 182 188 184 190 183 191 153 168 178 181 176 185 194 235 299 130 196 155 195 211 206 212
246 251 245 247 228 193 199 192 180 178 185 191 197 195 201 192 184 177 178 179 186 184 192 183 194 181 200 159 172 188 199 188 185 202 198 199 209 163 165 155 187 203 208
280 248 254 256 237 179 184 179 190 179 186 198 206 199 196 188 183 190 173 182 181 184 191 188 191 186 198 177 177 194 196 191 199 194 202 200 204 196 175 153 175 194 196
345 347 333 260 247 186 182 176 193 192 185 192 208 204 197 192 189 184 186 179 180 186 185 188 186 190 194 192 184 192 198 205 206 203 212 205 209 237 164 159 165 186 201
344 334 331 327 317 220 185 186 187 197 189 193 200 204 201 192 199 186 185 186 184 188 184 188 184 189 190 196 190 194 201 206 214 214 217 211 218 172 191 191 164 166 190
341 334 328 323 316 310 183 182 188 194 201 196 195 201 201 195 199 182 185 187 193 186 188 185 185 189 190 196 192 200 197 207 207 216 212 214 221 205 189 210 202 159 185
341 336 329 323 314 305 287 175 187 192 195 207 195 194 207 202 201 185 188 188 189 192 185 187 190 188 194 193 199 196 203 203 206 208 210 210 219 208 188 195 212 191 164
335 330 322 316 317 313 309 182 182 193 191 198 201 189 195 211 206 200 189 189 189 193 184 186 191 191 193 195 198 205 203 207 207 208 211 208 211 207 186 184 202 200 175
333 328 324 324 327 334 321 277 183 189 195 202 199 192 187 197 206 206 192 197 191 190 191 189 190 196 195 197 200 204 207 209 206 208 212 215 202 207 202 183 209 198 190
335 333 332 345 339 345 337 325 255 192 198 199 189 179 186 191 204 201 196 188 195 193 198 189 196 196 200 199 202 206 209 209 211 209 208 211 203 199 204 191 205 202 175
341 331 340 357 357 356 352 351 341 197 195 201 178 181 188 197 201 204 197 194 192 196 196 200 196 198 203 204 204 204 209 212 212 211 208 204 202 203 202 196 205 200 198
343 336 1 1 356 3 2 2 358 357 257 202 177 181 186 187 198 196 196 199 190 200 196 196 199 203 205 205 206 208 206 212 213 207 207 214 210 208 201 192 195 190 190
346 349 357 359 6 8 2 3 6 1 0 237 191 188 183 190 190 193 189 195 190 187 195 197 202 205 204 195 191 202 204 205 207 204 208 213 205 199 189 189 200 193 184
347 356 355 360 0 3 3 8 7 6 18 22 14 350 204 194 187 189 188 192 194 188 184 184 200 209 199 159 167 180 193 193 200 209 212 204 197 188 184 158 162 125 71
350 359 351 357 360 356 354 11 13 15 19 27 21 10 345 191 177 182 183 187 186 183 189 179 177 198 200 180 177 178 194 195 209 208 209 190 192 195 172 160 157 157 127
348 346 1 4 357 359 5 1 6 22 14 26 19 6 3 14 15 181 182 184 189 190 194 191 193 174 189 180 185 178 187 169 182 199 173 186 188 178 175 170 171 167 151
357 355 1 1 4 1 356 8 8 12 25 16 18 13 10 18 20 9 56 100 167 163 151 154 172 182 143 177 167 175 152 125 154 124 94 176 180 168 172 173 161 149 149
350 4 5 358 357 354 15 14 5 15 12 19 22 17 18 16 15 22 27 35 90 112 108 106 108 109 141 149 140 170 162 156 132 139 156 152 134 132 117 114 110 117 131
348 353 354 5 353 1 11 16 16 12 3 13 19 28 16 17 19 26 28 34 38 65 81 102 87 89 92 125 148 156 162 131 149 165 163 137 147 149 127 118 129 145 147
334 345 348 353 2 1 348 25 9 7 33 360 19 22 32 16 20 30 23 36 34 33 42 55 78 73 97 112 115 123 129 140 130 135 126 133 127 116 103 113 139 149 152
330 346 336 342 349 350 359 358 8 4 7 31 7 22 27 30 32 30 27 37 22 32 35 32 48 48 69 70 90 97 98 89 92 110 122 115 104 102 102 91 112 131 140
328 327 313 328 337 343 354 357 355 354 6 12 31 360 44 358 46 56 14 35 35 27 19 40 47 41 67 47 76 96 100 110 116 116 111 113 115 113 114 117 139 125 114
316 312 316 319 326 325 335 345 357 358 358 352 357 16 9 81 12 26 89 37 55 45 33 28 33 59 60 71 75 85 97 107 115 92 126 120 127 129 132 130 137 115 139